{"data":{"norad_id":60583,"intl_designator":"2024-150A","name":"STARLINK-31844","alt_names":[],"object_type":"PAYLOAD","status":"ACTIVE","operator":null,"country":"US","launch_date":"2024-08-20","launch_site_code":"AFETR","launch_vehicle":null,"mission":null,"orbit_class":"UNKNOWN","rcs_meters":null,"size_class":null,"mass_kg":null,"dimensions":null,"purposes":["comms"],"wikipedia_slug":null,"has_3d_model":false,"image_url":null,"decayed_at":null,"tle_current":{"epoch":"2026-09-21T20:45:21.535776Z","epoch_age_seconds":70589,"freshness":"FRESH","line1":"1 60583U 24150A   26264.86483259  .00000747  00000+0  35839-4 0  9998","line2":"2 60583  53.1591 113.9042 0001231  90.4110 269.7033 15.31706113118109","mean_motion":15.31706113,"eccentricity":0.0001231,"inclination_deg":53.1591,"raan_deg":113.9042,"arg_perigee_deg":90.411,"mean_anomaly_deg":269.7033,"bstar":3.5839e-5,"rev_number":11810,"period_min":94.012812756856,"perigee_km":469.87867823642,"apogee_km":471.56486726627,"semimajor_km":6848.8587727513,"source":"CELESTRAK","updated_at":"2026-09-22T09:00:49.238305Z"}}}